FENGYUN 1C DEB

Satellite information

Favourite Embed

Satellite Type and Status

DEBRISIN ORBIT

Key statistics

Satellite FENGYUN 1C DEB at a glance.

Uptime

9715

Days in orbit

Revolutions

≈ 14.8

Per day

Orbit

SSO

Sun Synchronous Orbit

Inclination

98.9

Latest

Satellite identification and parameters

Extended collection of information and parameters for FENGYUN 1C DEB.

Object identification

Identified? True

Debris? True

Object name: FENGYUN 1C DEB

International designator: 1999-025MR

Object number (NORAD): 30016

Object ID (CCSDS): 30016

Country: PEOPLES REPUBLIC OF CHINA (PRC)

Current information (Y/N): Y

RCS size: SMALL

Orbital parameters

Period: 97.393 minutes

Inclination: 98.9057 deg

SMA: 7012.06 km

Apoapsis: 666.75 km

Periapsis: 601.1 km

RAAN: 359.5917 deg

Eccentricy: 0.00468127

Argument of periapsis: 38.6501 deg

Mean anomaly: 91.9525 deg

Mean motion: 14.78544291 rev/day

Mean motion (dot): 0.00015719 rev/day2

B* drag term: 0.0021159935 1/REarth

Two-line elements (TLE)

Creation date: Dec. 14, 2025, 3:07 a.m.

Reference frame: TEME

Reference center: EARTH

Epoch: Dec. 13, 2025, 1:02 p.m. UTC

TLE line 0: 0 FENGYUN 1C DEB

TLE line 1: 1 30016U 99025MR 25347.54308828 .00015719 00000-0 21160-2 0 9999

TLE line 2: 2 30016 98.9057 359.5917 0046813 38.6501 91.9525 14.78544291994653

Live tracking on map

Real-time ground track for satellite FENGYUN 1C DEB.

In-orbit conjunctions

A list of the most updated potential collisions computed for object FENGYUN 1C DEB.

Target Orbit TCA Probability of collision Miss distance Type
SL-14 R/B LEO 2025-07-24 00:51:53 0.0001467021 346.0 (m) ROCKET BODY
CZ-6A DEB SSO 2025-01-19 07:08:22 0.0002390353 19.0 (m) DEBRIS

Associated space launch

Chinese polar orbiting meteorological satellite

FENGYUN 1C DEB was lifted into orbit during the mission ‘Long March 4B | Feng Yun 1C’, on board a Long March 4B space rocket.

The launch took place on May 10, 1999, 1:33 a.m. from Launch Complex 7.

For more information about the launch, click the button.

Launch to space Long March 4B | Feng Yun 1C
Long March 4B | Feng Yun 1C

Agency: N/A

Status: Launch Successful

Launch date: May 10, 1999, 1:33 a.m. UTC

Rocket: Long March 4B

Launch pad: Launch Complex 7

Location: Taiyuan Satellite Launch Center, People's Republic of China

...

Latest news about this satellite

There are no fresh news available about this satellite. Check back as we update our databases every day.


Newsletter sign-up

Weekly statistics, charts and insights to help you stay on top of the space industry.